| time (UTC) | temp C | wind direction | speed KPH | gust KPH | rain 1hr cm | rain 24hr cm | rain mn cm | humidity % | barometer mb |
| 20260906111049 | 17 | 0 | 0.0 | 0.0 | 0.00 | 0.03 | 0.00 | 99 | 1016.7 |
| 20260906110548 | 17 | 0 | 0.0 | 0.0 | 0.00 | 0.03 | 0.00 | 99 | 1016.9 |
| 20260906105551 | 17 | 0 | 0.0 | 0.0 | 0.00 | 0.03 | 0.00 | 99 | 1016.7 |
| 20260906105049 | 17 | 0 | 0.0 | 0.0 | 0.00 | 0.03 | 0.00 | 99 | 1016.7 |
| 20260906104557 | 17 | 0 | 0.0 | 3.2 | 0.00 | 0.03 | 0.00 | 99 | 1016.6 |
| 20260906104050 | 17 | 0 | 1.6 | 8.0 | 0.00 | 0.03 | 0.00 | 99 | 1016.6 |
| 20260906103550 | 17 | 190 | 3.2 | 8.0 | 0.00 | 0.03 | 0.00 | 99 | 1016.4 |
| 20260906103107 | 17 | 190 | 4.8 | 6.4 | 0.00 | 0.03 | 0.00 | 99 | 1016.4 |
| 20260906102548 | 17 | 190 | 3.2 | 6.4 | 0.00 | 0.03 | 0.00 | 99 | 1016.4 |
| 20260906102047 | 17 | 190 | 4.8 | 6.4 | 0.00 | 0.03 | 0.00 | 98 | 1016.4 |
| 20260906101556 | 17 | 190 | 1.6 | 4.8 | 0.00 | 0.03 | 0.00 | 98 | 1016.3 |
| 20260906101047 | 17 | 190 | 1.6 | 3.2 | 0.00 | 0.03 | 0.00 | 99 | 1016.3 |
| 20260906100547 | 16 | 190 | 0.0 | 3.2 | 0.00 | 0.03 | 0.00 | 98 | 1016.3 |
| 20260906095546 | 16 | 190 | 0.0 | 1.6 | 0.00 | 0.03 | 0.00 | 98 | 1016.1 |
| 20260906095051 | 16 | 0 | 0.0 | 0.0 | 0.00 | 0.03 | 0.00 | 98 | 1016.1 |
| 20260906094555 | 16 | 190 | 0.0 | 0.0 | 0.00 | 0.03 | 0.00 | 98 | 1016.1 |
| 20260906094047 | 16 | 0 | 0.0 | 0.0 | 0.00 | 0.03 | 0.00 | 98 | 1016.0 |
| 20260906093548 | 16 | 0 | 0.0 | 0.0 | 0.00 | 0.03 | 0.00 | 98 | 1015.9 |
| 20260906093100 | 16 | 0 | 0.0 | 0.0 | 0.00 | 0.03 | 0.00 | 98 | 1016.0 |
| 20260906092550 | 16 | 0 | 0.0 | 0.0 | 0.00 | 0.03 | 0.00 | 98 | 1016.0 |
| 20260906092047 | 16 | 0 | 0.0 | 0.0 | 0.00 | 0.03 | 0.00 | 98 | 1016.0 |
| 20260906091600 | 16 | 0 | 0.0 | 0.0 | 0.00 | 0.03 | 0.00 | 98 | 1016.1 |
| 20260906091047 | 16 | 0 | 0.0 | 0.0 | 0.00 | 0.03 | 0.00 | 98 | 1016.1 |
| 20260906090550 | 16 | 0 | 0.0 | 0.0 | 0.00 | 0.03 | 0.00 | 98 | 1016.1 |
| 20260906090116 | 16 | 0 | 0.0 | 0.0 | 0.00 | 0.03 | 0.00 | 98 | 1016.0 |
| 20260906085547 | 16 | 0 | 0.0 | 0.0 | 0.00 | 0.03 | 0.00 | 97 | 1015.8 |
| 20260906085047 | 16 | 0 | 0.0 | 0.0 | 0.00 | 0.03 | 0.00 | 98 | 1015.7 |
| 20260906084558 | 16 | 0 | 0.0 | 0.0 | 0.00 | 0.03 | 0.00 | 98 | 1015.7 |
| 20260906084047 | 16 | 0 | 0.0 | 0.0 | 0.00 | 0.03 | 0.00 | 97 | 1015.5 |
| 20260906083547 | 16 | 0 | 0.0 | 0.0 | 0.00 | 0.03 | 0.00 | 97 | 1015.4 |
| 20260906083055 | 16 | 0 | 0.0 | 0.0 | 0.00 | 0.03 | 0.00 | 97 | 1015.4 |
| 20260906082547 | 16 | 0 | 0.0 | 0.0 | 0.00 | 0.03 | 0.00 | 97 | 1015.3 |
| 20260906082047 | 16 | 0 | 0.0 | 0.0 | 0.00 | 0.03 | 0.00 | 98 | 1015.2 |
| 20260906081601 | 17 | 0 | 0.0 | 0.0 | 0.00 | 0.03 | 0.00 | 98 | 1015.3 |
| 20260906081047 | 16 | 0 | 0.0 | 0.0 | 0.00 | 0.03 | 0.00 | 98 | 1015.3 |
| 20260906080547 | 16 | 0 | 0.0 | 0.0 | 0.00 | 0.03 | 0.00 | 97 | 1015.3 |
| 20260906080122 | 16 | 0 | 0.0 | 0.0 | 0.00 | 0.03 | 0.00 | 97 | 1015.3 |
| 20260906075549 | 16 | 0 | 0.0 | 0.0 | 0.00 | 0.03 | 0.00 | 97 | 1015.3 |
| 20260906075047 | 16 | 0 | 0.0 | 0.0 | 0.00 | 0.03 | 0.00 | 97 | 1015.3 |
| 20260906074608 | 16 | 0 | 0.0 | 1.6 | 0.00 | 0.03 | 0.00 | 97 | 1015.2 |
| 20260906074047 | 16 | 190 | 0.0 | 1.6 | 0.00 | 0.03 | 0.00 | 97 | 1015.3 |
| 20260906073547 | 16 | 0 | 0.0 | 0.0 | 0.00 | 0.03 | 0.00 | 97 | 1015.3 |
| 20260906073110 | 17 | 0 | 0.0 | 0.0 | 0.00 | 0.03 | 0.00 | 97 | 1015.5 |
| 20260906072547 | 16 | 0 | 0.0 | 0.0 | 0.00 | 0.03 | 0.00 | 97 | 1015.4 |
| 20260906072049 | 17 | 0 | 0.0 | 0.0 | 0.00 | 0.03 | 0.00 | 97 | 1015.5 |
| 20260906071552 | 17 | 0 | 0.0 | 0.0 | 0.00 | 0.03 | 0.00 | 97 | 1015.5 |
| 20260906071049 | 17 | 0 | 0.0 | 0.0 | 0.00 | 0.03 | 0.00 | 97 | 1015.4 |
| 20260906070549 | 17 | 0 | 0.0 | 0.0 | 0.00 | 0.03 | 0.00 | 97 | 1015.5 |
| 20260906070057 | 16 | 0 | 0.0 | 0.0 | 0.00 | 0.03 | 0.00 | 97 | 1015.7 |
| 20260906065549 | 17 | 0 | 0.0 | 0.0 | 0.00 | 0.03 | 0.00 | 96 | 1015.7 |
| 20260906065051 | 17 | 0 | 0.0 | 0.0 | 0.00 | 0.03 | 0.00 | 97 | 1015.8 |
| 20260906064554 | 17 | 0 | 0.0 | 0.0 | 0.00 | 0.03 | 0.00 | 97 | 1015.8 |
| 20260906064048 | 17 | 0 | 0.0 | 0.0 | 0.00 | 0.03 | 0.00 | 97 | 1015.8 |
| 20260906063549 | 17 | 0 | 0.0 | 0.0 | 0.00 | 0.03 | 0.00 | 96 | 1015.9 |
| 20260906063057 | 17 | 0 | 0.0 | 0.0 | 0.00 | 0.03 | 0.00 | 96 | 1016.0 |
| 20260906062548 | 17 | 0 | 0.0 | 0.0 | 0.00 | 0.03 | 0.00 | 96 | 1015.9 |
| 20260906062049 | 17 | 0 | 0.0 | 0.0 | 0.00 | 0.03 | 0.00 | 96 | 1016.0 |
| 20260906061556 | 17 | 0 | 0.0 | 0.0 | 0.00 | 0.03 | 0.00 | 96 | 1016.0 |
| 20260906061052 | 17 | 0 | 0.0 | 0.0 | 0.00 | 0.03 | 0.00 | 96 | 1016.1 |
| 20260906060550 | 17 | 0 | 0.0 | 0.0 | 0.00 | 0.03 | 0.00 | 96 | 1016.1 |
| 20260906060104 | 17 | 0 | 0.0 | 0.0 | 0.00 | 0.03 | 0.00 | 96 | 1016.0 |
| 20260906055550 | 17 | 0 | 0.0 | 0.0 | 0.00 | 0.03 | 0.00 | 96 | 1016.1 |
| 20260906055050 | 17 | 0 | 0.0 | 0.0 | 0.00 | 0.03 | 0.00 | 95 | 1016.1 |
| 20260906054601 | 17 | 0 | 0.0 | 0.0 | 0.00 | 0.03 | 0.00 | 95 | 1015.9 |
| 20260906054049 | 17 | 0 | 0.0 | 0.0 | 0.00 | 0.03 | 0.00 | 95 | 1016.0 |
| 20260906053549 | 17 | 0 | 0.0 | 0.0 | 0.00 | 0.03 | 0.00 | 95 | 1016.0 |
| 20260906053058 | 18 | 0 | 0.0 | 0.0 | 0.00 | 0.03 | 0.00 | 95 | 1016.0 |
| 20260906052551 | 18 | 0 | 0.0 | 0.0 | 0.00 | 0.03 | 0.00 | 95 | 1015.9 |
| 20260906052049 | 18 | 0 | 0.0 | 0.0 | 0.00 | 0.03 | 0.00 | 95 | 1016.0 |
| 20260906051607 | 18 | 0 | 0.0 | 0.0 | 0.00 | 0.03 | 0.00 | 95 | 1016.0 |
| 20260906051049 | 18 | 0 | 0.0 | 0.0 | 0.00 | 0.03 | 0.00 | 95 | 1016.0 |
| 20260906050549 | 18 | 0 | 0.0 | 0.0 | 0.00 | 0.03 | 0.00 | 95 | 1016.1 |
| 20260906050110 | 18 | 0 | 0.0 | 0.0 | 0.00 | 0.03 | 0.00 | 95 | 1016.1 |
| 20260906045552 | 18 | 0 | 0.0 | 0.0 | 0.00 | 0.03 | 0.00 | 95 | 1016.2 |
| 20260906045048 | 18 | 0 | 0.0 | 0.0 | 0.00 | 0.03 | 0.00 | 94 | 1016.2 |
| 20260906044559 | 18 | 0 | 0.0 | 4.8 | 0.00 | 0.03 | 0.00 | 94 | 1016.2 |
| 20260906044051 | 18 | 0 | 0.0 | 6.4 | 0.00 | 0.03 | 0.00 | 94 | 1016.3 |
| 20260906043548 | 18 | 190 | 1.6 | 6.4 | 0.00 | 0.03 | 0.00 | 92 | 1016.4 |
| 20260906043104 | 18 | 190 | 1.6 | 3.2 | 0.00 | 0.03 | 0.00 | 93 | 1016.2 |
| 20260906042548 | 18 | 190 | 0.0 | 1.6 | 0.00 | 0.03 | 0.00 | 93 | 1016.2 |
| 20260906042048 | 18 | 0 | 0.0 | 0.0 | 0.00 | 0.03 | 0.00 | 94 | 1016.1 |
| 20260906041605 | 18 | 0 | 0.0 | 0.0 | 0.00 | 0.03 | 0.00 | 94 | 1016.2 |
| 20260906041048 | 18 | 0 | 0.0 | 0.0 | 0.00 | 0.03 | 0.00 | 94 | 1016.2 |
| 20260906040549 | 18 | 0 | 0.0 | 0.0 | 0.00 | 0.03 | 0.00 | 93 | 1016.2 |
| 20260906035551 | 18 | 0 | 0.0 | 0.0 | 0.00 | 0.03 | 0.03 | 91 | 1016.2 |
| 20260906035047 | 19 | 0 | 0.0 | 0.0 | 0.00 | 0.03 | 0.03 | 90 | 1016.2 |
| 20260906034622 | 19 | 0 | 0.0 | 3.2 | 0.00 | 0.03 | 0.03 | 89 | 1016.2 |
| 20260906034049 | 20 | 190 | 0.0 | 3.2 | 0.00 | 0.03 | 0.03 | 86 | 1016.2 |
| 20260906033548 | 21 | 0 | 0.0 | 1.6 | 0.00 | 0.03 | 0.03 | 86 | 1016.1 |
| 20260906033056 | 20 | 0 | 0.0 | 0.0 | 0.00 | 0.03 | 0.03 | 86 | 1016.4 |
| 20260906032549 | 20 | 0 | 0.0 | 0.0 | 0.00 | 0.03 | 0.03 | 87 | 1016.5 |
| 20260906032049 | 20 | 0 | 0.0 | 0.0 | 0.00 | 0.03 | 0.03 | 88 | 1016.5 |
| 20260906031557 | 20 | 0 | 0.0 | 0.0 | 0.00 | 0.03 | 0.03 | 89 | 1016.3 |
| 20260906031049 | 19 | 0 | 0.0 | 0.0 | 0.00 | 0.03 | 0.03 | 90 | 1016.4 |
| 20260906030549 | 19 | 0 | 0.0 | 0.0 | 0.00 | 0.03 | 0.03 | 90 | 1016.4 |
| 20260906030056 | 19 | 0 | 0.0 | 0.0 | 0.00 | 0.03 | 0.03 | 90 | 1016.5 |
| 20260906025548 | 19 | 0 | 0.0 | 0.0 | 0.00 | 0.03 | 0.03 | 89 | 1016.6 |
| 20260906025052 | 19 | 0 | 0.0 | 0.0 | 0.00 | 0.03 | 0.03 | 89 | 1016.5 |
| 20260906024603 | 19 | 0 | 0.0 | 0.0 | 0.00 | 0.03 | 0.03 | 88 | 1016.6 |
| 20260906024048 | 20 | 0 | 0.0 | 0.0 | 0.00 | 0.03 | 0.03 | 88 | 1016.5 |
| 20260906023548 | 20 | 0 | 0.0 | 0.0 | 0.00 | 0.03 | 0.03 | 87 | 1016.3 |
| 20260906023058 | 20 | 0 | 0.0 | 0.0 | 0.00 | 0.03 | 0.03 | 87 | 1016.4 |
| 20260906022549 | 20 | 0 | 0.0 | 0.0 | 0.00 | 0.03 | 0.03 | 88 | 1016.4 |
| 20260906022049 | 20 | 0 | 0.0 | 0.0 | 0.00 | 0.03 | 0.03 | 87 | 1016.4 |
| 20260906021604 | 20 | 0 | 0.0 | 0.0 | 0.00 | 0.03 | 0.03 | 86 | 1016.3 |
| 20260906021051 | 20 | 0 | 0.0 | 0.0 | 0.00 | 0.03 | 0.03 | 86 | 1016.4 |
| 20260906020549 | 20 | 0 | 0.0 | 0.0 | 0.00 | 0.03 | 0.03 | 85 | 1016.5 |
| 20260906020100 | 20 | 0 | 0.0 | 0.0 | 0.00 | 0.03 | 0.03 | 85 | 1016.5 |
| 20260906015548 | 21 | 0 | 0.0 | 0.0 | 0.00 | 0.03 | 0.03 | 85 | 1016.4 |
| 20260906015048 | 21 | 0 | 0.0 | 0.0 | 0.00 | 0.03 | 0.03 | 84 | 1016.4 |
| 20260906014554 | 21 | 0 | 0.0 | 0.0 | 0.00 | 0.03 | 0.03 | 83 | 1016.5 |
| 20260906014049 | 21 | 0 | 0.0 | 0.0 | 0.00 | 0.03 | 0.03 | 83 | 1016.5 |
| 20260906013552 | 21 | 0 | 0.0 | 0.0 | 0.00 | 0.03 | 0.03 | 82 | 1016.5 |
| 20260906013106 | 22 | 0 | 0.0 | 1.6 | 0.00 | 0.03 | 0.03 | 80 | 1016.3 |
| 20260906012548 | 22 | 0 | 0.0 | 4.8 | 0.00 | 0.03 | 0.03 | 79 | 1016.2 |
| 20260906012052 | 22 | 190 | 0.0 | 4.8 | 0.00 | 0.03 | 0.03 | 79 | 1016.1 |
| 20260906011556 | 22 | 190 | 3.2 | 4.8 | 0.00 | 0.03 | 0.03 | 78 | 1016.1 |
| 20260906011054 | 22 | 190 | 3.2 | 4.8 | 0.00 | 0.03 | 0.03 | 78 | 1016.1 |
| 20260906010548 | 22 | 190 | 3.2 | 6.4 | 0.00 | 0.03 | 0.03 | 77 | 1016.0 |
| 20260906010058 | 22 | 190 | 1.6 | 6.4 | 0.00 | 0.03 | 0.03 | 77 | 1016.0 |
| 20260906005548 | 23 | 190 | 0.0 | 3.2 | 0.00 | 0.03 | 0.03 | 77 | 1015.8 |
| 20260906005048 | 23 | 190 | 0.0 | 4.8 | 0.00 | 0.03 | 0.03 | 76 | 1015.8 |
| 20260906004603 | 23 | 190 | 0.0 | 4.8 | 0.00 | 0.03 | 0.03 | 76 | 1015.8 |
| 20260906004049 | 23 | 190 | 3.2 | 4.8 | 0.00 | 0.03 | 0.03 | 75 | 1015.8 |
| 20260906003549 | 23 | 190 | 3.2 | 4.8 | 0.00 | 0.03 | 0.03 | 75 | 1015.7 |
| 20260906003059 | 23 | 190 | 1.6 | 6.4 | 0.00 | 0.03 | 0.03 | 74 | 1015.7 |
| 20260906002548 | 23 | 190 | 3.2 | 9.7 | 0.00 | 0.03 | 0.03 | 74 | 1015.5 |
| 20260906002052 | 23 | 190 | 3.2 | 11.3 | 0.00 | 0.03 | 0.03 | 73 | 1015.6 |
| 20260906001605 | 23 | 190 | 4.8 | 11.3 | 0.00 | 0.03 | 0.03 | 73 | 1015.4 |
| 20260906001051 | 24 | 190 | 3.2 | 11.3 | 0.00 | 0.03 | 0.03 | 73 | 1015.5 |
| 20260906000548 | 24 | 190 | 3.2 | 9.7 | 0.00 | 0.03 | 0.03 | 72 | 1015.5 |
| 20260906000106 | 24 | 190 | 6.4 | 9.7 | 0.00 | 0.03 | 0.03 | 72 | 1015.4 |
| 20260905235548 | 24 | 190 | 4.8 | 11.3 | 0.00 | 0.03 | 0.03 | 72 | 1015.2 |
| 20260905235049 | 24 | 190 | 4.8 | 12.9 | 0.00 | 0.03 | 0.03 | 71 | 1015.2 |
| 20260905234620 | 24 | 190 | 8.0 | 12.9 | 0.00 | 0.03 | 0.03 | 71 | 1015.1 |
| 20260905234049 | 24 | 190 | 4.8 | 11.3 | 0.00 | 0.03 | 0.03 | 71 | 1015.1 |
| 20260905233549 | 24 | 190 | 6.4 | 11.3 | 0.00 | 0.03 | 0.03 | 72 | 1015.1 |
| 20260905233056 | 24 | 190 | 6.4 | 11.3 | 0.00 | 0.03 | 0.03 | 72 | 1015.2 |
| 20260905232548 | 24 | 190 | 6.4 | 8.0 | 0.00 | 0.03 | 0.03 | 72 | 1015.1 |
| 20260905232048 | 25 | 190 | 3.2 | 6.4 | 0.00 | 0.03 | 0.03 | 72 | 1015.1 |
| 20260905231555 | 25 | 190 | 1.6 | 6.4 | 0.00 | 0.03 | 0.03 | 72 | 1015.1 |
| 20260905231047 | 25 | 190 | 3.2 | 6.4 | 0.00 | 0.03 | 0.03 | 72 | 1015.2 |
| 20260905230548 | 25 | 190 | 3.2 | 11.3 | 0.00 | 0.03 | 0.03 | 71 | 1015.1 |
| 20260905230104 | 25 | 190 | 4.8 | 11.3 | 0.00 | 0.03 | 0.03 | 70 | 1015.0 |
| 20260905225549 | 25 | 190 | 6.4 | 11.3 | 0.00 | 0.03 | 0.03 | 69 | 1015.2 |
| 20260905225048 | 26 | 190 | 4.8 | 9.7 | 0.00 | 0.03 | 0.03 | 69 | 1015.1 |
| 20260905224556 | 26 | 190 | 3.2 | 9.7 | 0.00 | 0.03 | 0.03 | 68 | 1015.0 |
| 20260905224048 | 26 | 190 | 3.2 | 9.7 | 0.00 | 0.03 | 0.03 | 68 | 1015.1 |
| 20260905223549 | 26 | 190 | 3.2 | 14.5 | 0.00 | 0.03 | 0.03 | 68 | 1015.1 |
| 20260905223106 | 26 | 190 | 6.4 | 14.5 | 0.00 | 0.03 | 0.03 | 68 | 1015.1 |
| 20260905222551 | 26 | 190 | 3.2 | 8.0 | 0.00 | 0.03 | 0.03 | 69 | 1015.3 |
| 20260905222048 | 26 | 190 | 4.8 | 17.7 | 0.00 | 0.03 | 0.03 | 69 | 1015.2 |
| 20260905221601 | 26 | 190 | 4.8 | 17.7 | 0.00 | 0.03 | 0.03 | 68 | 1015.2 |
| 20260905221051 | 26 | 190 | 6.4 | 17.7 | 0.00 | 0.03 | 0.03 | 68 | 1015.1 |
| 20260905220548 | 26 | 190 | 4.8 | 12.9 | 0.00 | 0.03 | 0.03 | 69 | 1015.0 |
| 20260905215549 | 27 | 190 | 4.8 | 11.3 | 0.00 | 0.03 | 0.03 | 67 | 1015.1 |
| 20260905215049 | 27 | 190 | 6.4 | 12.9 | 0.00 | 0.03 | 0.03 | 67 | 1015.1 |
| 20260905214554 | 27 | 190 | 4.8 | 12.9 | 0.00 | 0.03 | 0.03 | 67 | 1015.1 |
| 20260905214048 | 27 | 190 | 6.4 | 14.5 | 0.00 | 0.03 | 0.03 | 67 | 1015.1 |
| 20260905213547 | 27 | 190 | 6.4 | 16.1 | 0.00 | 0.03 | 0.03 | 67 | 1015.0 |
| 20260905213101 | 27 | 190 | 6.4 | 16.1 | 0.00 | 0.03 | 0.03 | 66 | 1015.0 |
| 20260905212549 | 27 | 190 | 6.4 | 14.5 | 0.00 | 0.03 | 0.03 | 66 | 1015.0 |
| 20260905212051 | 27 | 190 | 6.4 | 14.5 | 0.00 | 0.03 | 0.03 | 65 | 1015.0 |
| 20260905211556 | 27 | 190 | 6.4 | 14.5 | 0.00 | 0.03 | 0.03 | 64 | 1014.9 |
| 20260905211049 | 27 | 190 | 4.8 | 14.5 | 0.00 | 0.03 | 0.03 | 64 | 1015.0 |
| 20260905210549 | 27 | 190 | 1.6 | 11.3 | 0.00 | 0.03 | 0.03 | 64 | 1014.9 |
| 20260905210105 | 27 | 190 | 4.8 | 14.5 | 0.00 | 0.03 | 0.03 | 64 | 1014.7 |
| 20260905205551 | 27 | 190 | 4.8 | 14.5 | 0.00 | 0.03 | 0.03 | 63 | 1014.8 |
| 20260905205048 | 27 | 190 | 6.4 | 14.5 | 0.00 | 0.03 | 0.03 | 61 | 1014.8 |
| 20260905204555 | 28 | 190 | 3.2 | 9.7 | 0.00 | 0.03 | 0.03 | 61 | 1014.7 |
| 20260905204048 | 28 | 190 | 1.6 | 6.4 | 0.00 | 0.03 | 0.03 | 62 | 1014.7 |
| 20260905203551 | 28 | 190 | 3.2 | 12.9 | 0.00 | 0.03 | 0.03 | 64 | 1014.8 |
| 20260905203111 | 28 | 190 | 0.0 | 12.9 | 0.00 | 0.03 | 0.03 | 63 | 1015.0 |
| 20260905202548 | 28 | 190 | 4.8 | 12.9 | 0.00 | 0.03 | 0.03 | 64 | 1014.8 |
| 20260905202050 | 28 | 0 | 1.6 | 11.3 | 0.00 | 0.03 | 0.03 | 64 | 1014.7 |
| 20260905201557 | 27 | 190 | 3.2 | 20.9 | 0.00 | 0.03 | 0.03 | 64 | 1014.7 |
| 20260905201049 | 27 | 190 | 1.6 | 20.9 | 0.00 | 0.03 | 0.03 | 65 | 1014.7 |
| 20260905200548 | 27 | 190 | 6.4 | 20.9 | 0.00 | 0.03 | 0.03 | 63 | 1014.6 |
| 20260905195548 | 27 | 190 | 3.2 | 12.9 | 0.00 | 0.03 | 0.03 | 65 | 1014.5 |
| 20260905195048 | 27 | 190 | 1.6 | 12.9 | 0.00 | 0.03 | 0.03 | 67 | 1014.5 |
| 20260905194603 | 27 | 190 | 4.8 | 12.9 | 0.00 | 0.03 | 0.03 | 66 | 1014.5 |
| 20260905194048 | 27 | 190 | 4.8 | 14.5 | 0.00 | 0.03 | 0.03 | 66 | 1014.3 |
| 20260905193551 | 27 | 190 | 8.0 | 14.5 | 0.00 | 0.03 | 0.03 | 67 | 1014.5 |
| 20260905193102 | 27 | 190 | 1.6 | 8.0 | 0.00 | 0.03 | 0.03 | 69 | 1014.3 |
| 20260905192551 | 27 | 190 | 1.6 | 14.5 | 0.00 | 0.03 | 0.03 | 69 | 1014.4 |
| 20260905192049 | 27 | 0 | 4.8 | 14.5 | 0.00 | 0.03 | 0.03 | 71 | 1014.2 |
| 20260905191555 | 26 | 190 | 4.8 | 20.9 | 0.00 | 0.03 | 0.03 | 71 | 1014.3 |
| 20260905191048 | 26 | 190 | 4.8 | 20.9 | 0.00 | 0.03 | 0.03 | 72 | 1014.5 |
| 20260905190549 | 26 | 190 | 8.0 | 20.9 | 0.00 | 0.03 | 0.03 | 73 | 1014.7 |
| 20260905190103 | 26 | 190 | 1.6 | 12.9 | 0.00 | 0.03 | 0.03 | 76 | 1014.8 |
| 20260905185547 | 26 | 190 | 6.4 | 16.1 | 0.00 | 0.03 | 0.03 | 77 | 1014.8 |
| 20260905185048 | 25 | 190 | 6.4 | 16.1 | 0.00 | 0.03 | 0.03 | 76 | 1014.9 |
| 20260905184606 | 25 | 190 | 6.4 | 12.9 | 0.00 | 0.03 | 0.03 | 76 | 1015.1 |
| 20260905184048 | 25 | 190 | 3.2 | 20.9 | 0.00 | 0.03 | 0.03 | 78 | 1015.2 |
| 20260905183549 | 25 | 190 | 8.0 | 20.9 | 0.00 | 0.03 | 0.03 | 79 | 1015.4 |
| 20260905183106 | 25 | 190 | 9.7 | 20.9 | 0.00 | 0.03 | 0.03 | 78 | 1015.4 |
| 20260905182548 | 25 | 190 | 6.4 | 19.3 | 0.00 | 0.03 | 0.03 | 80 | 1015.6 |
| 20260905182048 | 24 | 190 | 6.4 | 19.3 | 0.00 | 0.03 | 0.03 | 80 | 1015.7 |
| 20260905181602 | 23 | 190 | 8.0 | 17.7 | 0.00 | 0.03 | 0.03 | 82 | 1015.7 |
| 20260905181048 | 23 | 190 | 8.0 | 17.7 | 0.00 | 0.03 | 0.03 | 82 | 1015.5 |
| 20260905180548 | 23 | 190 | 11.3 | 17.7 | 0.00 | 0.03 | 0.03 | 83 | 1015.3 |
| 20260905180100 | 23 | 190 | 9.7 | 17.7 | 0.00 | 0.03 | 0.03 | 83 | 1015.4 |
| 20260905175549 | 23 | 190 | 9.7 | 17.7 | 0.00 | 0.03 | 0.03 | 83 | 1015.6 |
| 20260905175048 | 23 | 190 | 11.3 | 19.3 | 0.00 | 0.03 | 0.03 | 83 | 1015.9 |
| 20260905174603 | 23 | 190 | 11.3 | 19.3 | 0.00 | 0.03 | 0.03 | 82 | 1016.1 |
| 20260905174048 | 23 | 190 | 8.0 | 19.3 | 0.00 | 0.03 | 0.03 | 81 | 1016.3 |
| 20260905173548 | 23 | 190 | 12.9 | 19.3 | 0.00 | 0.03 | 0.03 | 81 | 1016.4 |
| 20260905173056 | 23 | 190 | 12.9 | 20.9 | 0.00 | 0.03 | 0.03 | 82 | 1016.5 |
| 20260905172548 | 23 | 190 | 12.9 | 20.9 | 0.00 | 0.03 | 0.03 | 81 | 1016.6 |
| 20260905172048 | 23 | 190 | 8.0 | 17.7 | 0.00 | 0.03 | 0.03 | 81 | 1016.8 |
| 20260905171614 | 23 | 190 | 9.7 | 17.7 | 0.00 | 0.03 | 0.03 | 80 | 1016.8 |
| 20260905171048 | 24 | 190 | 9.7 | 20.9 | 0.00 | 0.03 | 0.03 | 80 | 1017.0 |
| 20260905170548 | 24 | 190 | 11.3 | 20.9 | 0.00 | 0.03 | 0.03 | 80 | 1017.2 |
| 20260905170105 | 24 | 190 | 8.0 | 14.5 | 0.00 | 0.03 | 0.03 | 80 | 1017.2 |
| 20260905165548 | 24 | 190 | 9.7 | 16.1 | 0.03 | 0.03 | 0.03 | 79 | 1017.3 |
| 20260905165048 | 24 | 190 | 8.0 | 16.1 | 0.03 | 0.03 | 0.03 | 80 | 1017.3 |
| 20260905164556 | 25 | 190 | 9.7 | 16.1 | 0.03 | 0.03 | 0.03 | 80 | 1017.4 |
| 20260905164048 | 25 | 190 | 6.4 | 16.1 | 0.03 | 0.03 | 0.03 | 82 | 1017.5 |
| 20260905163548 | 25 | 190 | 8.0 | 14.5 | 0.03 | 0.03 | 0.03 | 83 | 1017.6 |
| 20260905163056 | 25 | 190 | 3.2 | 9.7 | 0.03 | 0.03 | 0.03 | 84 | 1017.5 |
| 20260905162548 | 25 | 190 | 3.2 | 9.7 | 0.03 | 0.03 | 0.03 | 84 | 1017.3 |
| 20260905162047 | 25 | 190 | 4.8 | 9.7 | 0.03 | 0.03 | 0.03 | 85 | 1017.3 |
| 20260905161558 | 25 | 190 | 3.2 | 8.0 | 0.03 | 0.03 | 0.03 | 85 | 1017.4 |
| 20260905161048 | 25 | 190 | 1.6 | 11.3 | 0.03 | 0.03 | 0.03 | 82 | 1017.6 |
| 20260905160547 | 25 | 190 | 4.8 | 14.5 | 0.03 | 0.03 | 0.03 | 81 | 1017.6 |
| 20260905160107 | 26 | 190 | 6.4 | 14.5 | 0.03 | 0.03 | 0.03 | 80 | 1017.7 |
| 20260905155549 | 26 | 190 | 3.2 | 12.9 | 0.00 | 0.00 | 0.00 | 77 | 1017.6 |
| 20260905155049 | 26 | 190 | 3.2 | 12.9 | 0.00 | 0.00 | 0.00 | 79 | 1017.5 |
| 20260905154641 | 26 | 190 | 4.8 | 12.9 | 0.00 | 0.00 | 0.00 | 78 | 1017.6 |
| 20260905154048 | 26 | 190 | 3.2 | 16.1 | 0.00 | 0.00 | 0.00 | 77 | 1017.5 |
| 20260905153551 | 27 | 190 | 8.0 | 16.1 | 0.00 | 0.00 | 0.00 | 76 | 1017.5 |
| 20260905153101 | 27 | 190 | 4.8 | 19.3 | 0.00 | 0.00 | 0.00 | 76 | 1017.4 |
| 20260905152548 | 27 | 190 | 9.7 | 22.5 | 0.00 | 0.00 | 0.00 | 75 | 1017.3 |
| 20260905152048 | 27 | 190 | 8.0 | 24.1 | 0.00 | 0.00 | 0.00 | 75 | 1017.3 |
| 20260905151601 | 27 | 190 | 9.7 | 24.1 | 0.00 | 0.00 | 0.00 | 75 | 1017.4 |
| 20260905151049 | 27 | 190 | 4.8 | 20.9 | 0.00 | 0.00 | 0.00 | 76 | 1017.3 |
| 20260905150548 | 27 | 190 | 6.4 | 32.2 | 0.00 | 0.00 | 0.00 | 76 | 1017.2 |
| 20260905150109 | 27 | 190 | 11.3 | 32.2 | 0.00 | 0.00 | 0.00 | 75 | 1017.1 |
| 20260905145549 | 27 | 190 | 8.0 | 17.7 | 0.00 | 0.00 | 0.00 | 77 | 1017.1 |
| 20260905145048 | 27 | 190 | 9.7 | 20.9 | 0.00 | 0.00 | 0.00 | 78 | 1017.1 |
| 20260905144556 | 27 | 190 | 9.7 | 20.9 | 0.00 | 0.00 | 0.00 | 76 | 1017.2 |
| 20260905144048 | 27 | 190 | 6.4 | 19.3 | 0.00 | 0.00 | 0.00 | 78 | 1017.2 |
| 20260905143549 | 26 | 190 | 9.7 | 19.3 | 0.00 | 0.00 | 0.00 | 79 | 1017.1 |
| 20260905143106 | 26 | 190 | 8.0 | 24.1 | 0.00 | 0.00 | 0.00 | 80 | 1017.3 |
| 20260905142547 | 26 | 190 | 9.7 | 24.1 | 0.00 | 0.00 | 0.00 | 81 | 1017.3 |
| 20260905142049 | 26 | 190 | 11.3 | 20.9 | 0.00 | 0.00 | 0.00 | 80 | 1017.3 |
| 20260905141604 | 25 | 190 | 9.7 | 19.3 | 0.00 | 0.00 | 0.00 | 82 | 1017.3 |
| 20260905141047 | 25 | 190 | 11.3 | 22.5 | 0.00 | 0.00 | 0.00 | 82 | 1017.2 |
| 20260905140550 | 25 | 190 | 11.3 | 22.5 | 0.00 | 0.00 | 0.00 | 83 | 1017.2 |
| 20260905140105 | 25 | 190 | 14.5 | 22.5 | 0.00 | 0.00 | 0.00 | 83 | 1017.1 |
| 20260905135548 | 25 | 190 | 11.3 | 19.3 | 0.00 | 0.00 | 0.00 | 85 | 1017.2 |
| 20260905135049 | 24 | 190 | 4.8 | 12.9 | 0.00 | 0.00 | 0.00 | 87 | 1017.2 |
| 20260905134608 | 23 | 190 | 4.8 | 9.7 | 0.00 | 0.00 | 0.00 | 88 | 1017.2 |
| 20260905134048 | 23 | 190 | 4.8 | 9.7 | 0.00 | 0.00 | 0.00 | 88 | 1017.2 |
| 20260905133549 | 23 | 190 | 3.2 | 11.3 | 0.00 | 0.00 | 0.00 | 88 | 1017.2 |
| 20260905133101 | 22 | 190 | 4.8 | 11.3 | 0.00 | 0.00 | 0.00 | 89 | 1017.2 |
| 20260905132549 | 22 | 190 | 4.8 | 9.7 | 0.00 | 0.00 | 0.00 | 89 | 1017.4 |
| 20260905132048 | 22 | 190 | 3.2 | 9.7 | 0.00 | 0.00 | 0.00 | 89 | 1017.4 |
| 20260905131600 | 22 | 190 | 1.6 | 8.0 | 0.00 | 0.00 | 0.00 | 90 | 1017.3 |
| 20260905131048 | 22 | 190 | 1.6 | 8.0 | 0.00 | 0.00 | 0.00 | 90 | 1017.1 |
| 20260905130553 | 22 | 190 | 3.2 | 8.0 | 0.00 | 0.00 | 0.00 | 89 | 1017.2 |
| 20260905130101 | 22 | 190 | 1.6 | 6.4 | 0.00 | 0.00 | 0.00 | 90 | 1017.3 |
| 20260905125549 | 22 | 190 | 1.6 | 6.4 | 0.00 | 0.00 | 0.00 | 90 | 1017.4 |
| 20260905125048 | 22 | 190 | 1.6 | 4.8 | 0.00 | 0.00 | 0.00 | 91 | 1017.4 |
| 20260905124605 | 21 | 190 | 0.0 | 3.2 | 0.00 | 0.00 | 0.00 | 92 | 1017.4 |
| 20260905124049 | 21 | 190 | 1.6 | 3.2 | 0.00 | 0.00 | 0.00 | 93 | 1017.4 |
| 20260905123547 | 21 | 190 | 0.0 | 3.2 | 0.00 | 0.00 | 0.00 | 95 | 1017.4 |
| 20260905123104 | 20 | 190 | 1.6 | 4.8 | 0.00 | 0.00 | 0.00 | 96 | 1017.4 |
| 20260905122547 | 20 | 190 | 1.6 | 4.8 | 0.00 | 0.00 | 0.00 | 96 | 1017.3 |
| 20260905122048 | 20 | 190 | 3.2 | 4.8 | 0.00 | 0.00 | 0.00 | 97 | 1017.4 |
| 20260905121553 | 19 | 190 | 1.6 | 4.8 | 0.00 | 0.00 | 0.00 | 97 | 1017.5 |
| 20260905121048 | 19 | 190 | 3.2 | 4.8 | 0.00 | 0.00 | 0.00 | 97 | 1017.4 |
| 20260905120547 | 19 | 190 | 1.6 | 3.2 | 0.00 | 0.00 | 0.00 | 98 | 1017.4 |
| 20260905120059 | 18 | 190 | 0.0 | 3.2 | 0.00 | 0.00 | 0.00 | 98 | 1017.3 |
| 20260905115548 | 18 | 0 | 1.6 | 3.2 | 0.00 | 0.00 | 0.00 | 98 | 1017.4 |
| 20260905115048 | 18 | 190 | 1.6 | 3.2 | 0.00 | 0.00 | 0.00 | 98 | 1017.4 |
| 20260905114607 | 18 | 0 | 0.0 | 3.2 | 0.00 | 0.00 | 0.00 | 98 | 1017.4 |
| 20260905114048 | 18 | 0 | 0.0 | 0.0 | 0.00 | 0.00 | 0.00 | 98 | 1017.3 |
| 20260905113549 | 18 | 0 | 0.0 | 0.0 | 0.00 | 0.00 | 0.00 | 98 | 1017.3 |
| 20260905113101 | 18 | 0 | 0.0 | 0.0 | 0.00 | 0.00 | 0.00 | 98 | 1017.4 |
| 20260905112548 | 17 | 0 | 0.0 | 0.0 | 0.00 | 0.00 | 0.00 | 98 | 1017.5 |
| 20260905112049 | 17 | 0 | 0.0 | 0.0 | 0.00 | 0.00 | 0.00 | 98 | 1017.4 |
| 20260905111626 | 17 | 0 | 0.0 | 0.0 | 0.00 | 0.00 | 0.00 | 98 | 1017.2 |